ONEWEB-0086 (45456 NORAD) Tracking and Keplerian Element Data

This shows tracking and keplerian element data for the satellite.

Feedback or suggestion? Click here.




ElementValue
Catalog45456
NameONEWEB-0086
Epoch Orbit3206
Epoch Day297.91667824
Epoch Year2020
RAAN71.7633
Inclination87.7911
Eccentricity0.0021011
Argument of Perigee250.5889
Mean Anonmoly35.7406
Mean Motion13.97136407
Decay Rate-0.00017065
L11 45456U 20020AJ 20297.91667824 -.00017065 00000-0 -12239-1 0 9990
L22 45456 87.7911 71.7633 0021011 250.5889 35.7406 13.97136407 32065

Live tracking and technical data element details for ONEWEB-0086 (NORAD 45456). ONEWEB-0086 can be tracked NOW for your location showing map with azimuth and elevation plus other details from your city location.

Track the satellite on the map from your city or location and see movement details for azimuth, elevation, latitude, longitude, range, height, and movement on the map or in text.







IsCatalogInMostPopularTable: catalog: 45456, numindb: 64
Update: records affected: 1



GetName: 45456 ONEWEB-0086

Hit Count: updated at: Sat, 24 Oct 2020 23:02:32 GMT